Погода в Кишиневе

Погода в Кишиневе : погода сейчас, прогноз погоды и архив. Всё, что Вы хотите узнать о погоде в Кишиневе!

Хотите узнать прогноз погоды в Кишинёве? Тогда Вам сюда: Погода в Кишинёве

Поиск расширенной информации на нашем сайте:

Другие новости

Новости СМИ2

Главная страница сайта

Новости сайта

02.10.2013

Напоминаем, что на нашем новом сайте вы можете получить высокодетализированные прогнозы погоды по пунктам России, СНГ и мира (включающие важные для авиации метеовеличины, такие как направление и скорость ветра, видимость, явления погоды, количество и форма облачности, нижняя и верхняя граница облачности), а также ознакомиться с разнообразными материалами по авиационной метеорологии и подборкой полезных ссылок на эту тему.

Сайт Метеоцентр.Азия посвящён разработке технологий оптимизации авиаметеорологического обслуживания, включая проектирование и перспективное создание нескольких автоматизированных авиаметеорологических систем:
- система выпуска высокодетальных прогностических карт явлений погоды для нижнего воздушного пространства по России и ближнему зарубежью;
- система верификации прогнозов TAF (выпускаемых синоптиками официальных АМСГ РФ и ближнего зарубежья) и AUTOTAF (выпускаемых сайтом Метеоцентр.Азия) - выявление ошибок, онлайн-сопоставление с фактической погодой METAR, автоматическое внесение коррективов в прогнозы при резком отклонении фактической погоды от прогноза, подсчёт оправдываемости прогнозов по элементам и в целом;
- система обработки, анализа и отображения авиаметеорологической информации для применения провайдерами метеорологической информации.

Рекомендуем: трудовой кодекс рф

Погода в Кишиневе - сегодня

Время (UTC), дата Ветер
(°,м/с) 
Видим.   Явления Облачность Т
(°С)
Тd
(°С)
f(%) Тe
(°С)
Pmin
(гПа)
dP
(гПа)
Po
(мм)
O2
(г/м3)
Тmin Tmax R s Состояние
почвы
03 19.01.17 060 (СВ) 20000 м    8/8 600 м 
[Sc]
-6.9 -9.3 83 -8  1038.9  0.2  762  316           
06 19.01.17 090 (В) 10 км    10/10 600 м 
[Sc]
-7.8 -9.7 86 -11  1039.6  0.6  763  317  -7.9      мокрый или
старый снег
50-90% 
09 19.01.17 080 (В) 10 км    10/10 600 м 
[Sc]
-7.2 -9.6 83 -9  1040.5  0.9  764  317           
12 19.01.17 040 (СВ) 10 км    4/4 600 м 
[Cu hum]
-5.3 -9.2 74 -7  1039  -1.3  763  314           
15 19.01.17 350 (С) 10 км    ясно 
-6.5 -9.2 81 -8  1038.5  -0.6  762  316           
18 19.01.17 020 (С) 10 км    5/0 средняя, верхняя 
[Ac trans|Ci fib]
-7.9 -9.7 87 -11  1038.6  762  317    -4.4       
21 19.01.17 тихо ()   10 км    3/0 средняя 
[Ac trans]
-9.1 -10.6 89 -9  1038.6  -0.1  762  319           
00 20.01.17 100 (В) 1000 м  дымка  ясно 
-12.1 -13.5 89 -12  1038.2  -0.7  762  322           
03 20.01.17 тихо ()   0500 м  переохл. туман  ?/?  
-14.4 -16.2 86 -14  1036.9  -1.4  761  325           
06 20.01.17 тихо ()   1000 м  в посл. час туман  ясно 
-15.9 -18 84 -16  1036.6  -0.5  760  327  -16.1      мокрый или
старый снег
50-90% 
09 20.01.17 тихо ()   4000 м  дымка  1/0 верхняя 
[Ci fib]
-8.1 -9.4 90 -8  1035.8  -0.1  760  317           
12 20.01.17 260 (З) 10 км    ясно 
-3.9 -10.1 62 -6  1033.2  -2.2  758  311           
15 20.01.17 280 (З) 10 км    9/0 средняя 
[Ac lent]
-4.6 -9.8 67 -4  1032  -1.2  758  311           
18 20.01.17 тихо ()   10 км    10/0 средняя 
[Ac und]
-4.9 -9.5 70 -5  1031.4  -0.6  757  312    -3.4       
21 20.01.17 290 (З) 10 км  в посл. час снег  8/0 средняя 
[Ac trans]
-3.2 -8.6 66 -4  1030.9  -0.4  757  309           
00 21.01.17 280 (З) 20000 м  {снег}  10/0 средняя 
[Ac und]
-2 -4.2 85 -3  1029.4  -1.3  756  307           
03 21.01.17 280 (З) 10 км    10/10 600 м 
[Sc]
-2 -3 93 -1  1028.2  -1.2  755  307           
06 21.01.17 240 (ЮЗ) 2000 м  слаб. дождь со снегом{морось} [диам. гололёда 1 мм]  10/10 600 м 
[Sc]
-1.9 -2.7 94 -1  1027.9  -0.3  755  307  -5    0.0  мокрый или
старый снег
50-90% 
09 21.01.17 330 (СЗ) 4000 м  слаб. снег [диам. гололёда 1 мм]  10/10 600 м 
[Sc]
+0.5 -1.3 88 -2  1028.2  0.5  755  304           
12 21.01.17 310 (СЗ) 10 км  {снег}  10/10 600 м 
[Sc]
+0.5 -1.7 85 -2  1026.8  -1.4  754  303           
15 21.01.17 310 (СЗ) 10 км    10/10 600 м 
[Sc]
+0.8 -1.1 87 -2  1027.1  0.4  754  303           
18 21.01.17 320 (СЗ) 10 км  в посл. час морось  10/10 600 м 
[St]
+1.2 -1 85 -1  1028.3  1.2  755  303    +1.2  0.3     
21 21.01.17 320 (СЗ) 10 км    10/10 600 м 
[Sc]
+1.1 -0.4 90 -1  1030.3  1.9  757  304           
00 22.01.17 320 (СЗ) 10 км    10/10 600 м 
[Sc]
+0.8 -0.4 92 -1  1031.3  757  304           
03 22.01.17 320 (СЗ) 10 км  в посл. час дождь со снегом  10/10 600 м 
[Sc]
+0.7 -0.3 93 -1  1032.3  0.9  758  305           
Время (UTC), дата Ветер
(°,м/с) 
Видим.   Явления Облачность Т
(°С)
Тd
(°С)
f(%) Тe
(°С)
Pmin
(гПа)
dP
(гПа)
Po
(мм)
O2
(г/м3)
Тmin Tmax R s Состояние
почвы

Для получения пояснительной информации подведите курсор к названию столбца.

ПОГОДА в Кишиневе - архив

Всё, что Вы хотите узнать о погоде в Кишиневе - удобно и подробно!

Выберите нужную дату (начиная с 1 января 2015* года) и нажмите кнопку "Найти".
Будут отображены архивные сводки погоды по пункту Кишинев, начиная с указанной даты.


Отображать данные в формате CSV (для использования в таблицах Excel)


Внимание! Наш архив погоды предназначен исключительно для личного некоммерческого использования в познавательных целях. Если Вам необходимы официальные справки о состоянии погоды (для производственных, юридических, коммерческих и т.п. целей), обращайтесь в органы Росгидромета.

*Примечание: данная дата относится к архиву по метеостанциям СССР (Россия, СНГ, Балтия).
Архив по метеостанциям Зарубежной Европы и Азии (кроме Китая) хранится 10 дней, по другим регионам земного шара (Китай, Африка, Америка, Австралия, Океания) - 1 день.

Кишинев - район местоположения метеостанции


Название, широта, долгота, высота метеостанции:
Кишинев 47°ш. 29°д. 173 м над ур. моря [Молдавия]

Дополнительная информация

В oтличие oт бoльшинства пoгoдных сайтoв мы публикуем пoдрoбную метеoинфoрмацию в детальнoм прoфессиoнальнoм фoрмате.

Характеристики температуры и влажнoсти вoздуха измеряются на высoте 2 м в тени вдали oт зданий и деревьев.
Скoрoсть ветра измеряется на высoте 10 м (на урoвне рoста челoвека скoрoсть ветра ниже в 1.5-2 раза). Если метеoстанция нахoдится в гoрoде или в лесу, тo скoрoсть ветра занижена на 2-4 м/с пo сравнению с oткрытым местoм. Скoрoсть ветра над акватoриями крупных рек и oзёр, а также на вершинах хoлмoв на 2-5 м/с выше, чем в oбычных услoвиях.
Атмoсфернoе давление в разных тoчках местнoсти мoжет значительнo oтличаться oт давления на метеoстанции, в зависимoсти oт услoвий рельефа (при пoдъёме на 10 м давление пoнижается примернo на 1 мм рт.ст.).